Weather History for KHRL - March, 2013

Change the Weather History Date:

Tuesday, March 5, 2013

  Actual Average Record
Temperature  
Mean Temperature 62 °F 67 °F  
Max Temperature 77 °F 78 °F 98 °F (1983)
Min Temperature 47 °F 56 °F 33 °F (1931)
Degree Days  
Heating Degree Days 3 2  
Month to date heating degree days 18 14  
Since 1 July heating degree days 366 582  
Cooling Degree Days 0 4  
Month to date cooling degree days 8 20  
Year to date cooling degree days 202 145  
Growing Degree Days 14 (Base 50)    
Moisture  
Dew Point 49 °F    
Average Humidity 60    
Maximum Humidity 93    
Minimum Humidity 27    
Precipitation  
Precipitation 0.00 in 0.04 in 0.93 in (1950)
Month to date precipitation 0.00 0.19  
Year to date precipitation 2.74 2.66  
Sea Level Pressure  
Sea Level Pressure 30.07 in    
Wind  
Wind Speed 16 mph (NNW)    
Max Wind Speed 36 mph    
Max Gust Speed 43 mph    
Visibility 10 miles    
Events      
T = Trace of Precipitation, MM = Missing Value Source: NWS Daily Summary

Daily Weather History Graph

Daily Weather History Graph

Search for Another Location

Airport or City:

Trip Planner

Search our weather history database for the weather conditions in past years. The results will help you decide how hot, cold, wet, or windy it might be!

Date:

Astronomy

Mar. 05, 2013 Rise Set
Actual Time 6:49 AM CST 6:34 PM CST
Civil Twilight 6:26 AM CST 6:57 PM CST
Nautical Twilight 6:00 AM CST 7:24 PM CST
Astronomical Twilight 5:33 AM CST 7:51 PM CST
Moon 1:38 AM CST 12:39 PM CST
Length of Visible Light 12h 30m
Length of Day
11h 44m
Last Quarter, 40% of the Moon is Illuminated
Mar 5
Last Quarter
Mar 11
New
Mar 19
First Quarter
Mar 27
Full
Apr 2
Last Quarter

Hourly Weather History & Observations

Time (CST) Temp. Dew Point Humidity Pressure Visibility Wind Dir Wind Speed Gust Speed Precip Events Conditions
1:52 AM 66.0 °F 60.1 °F 81% 29.82 in 10.0 mi South 23.0 mph 32.2 mph N/A   Clear
2:52 AM 66.0 °F 60.1 °F 81% 29.81 in 10.0 mi South 21.9 mph 28.8 mph N/A   Clear
3:52 AM 66.0 °F 61.0 °F 84% 29.82 in 10.0 mi South 17.3 mph 27.6 mph N/A   Clear
4:52 AM 64.9 °F 62.1 °F 90% 29.83 in 10.0 mi South 15.0 mph - N/A   Clear
5:52 AM 64.9 °F 62.1 °F 90% 29.85 in 10.0 mi South 12.7 mph - N/A   Mostly Cloudy
6:21 AM 64.4 °F 62.6 °F 94% 29.86 in 10.0 mi South 16.1 mph - N/A   Scattered Clouds
6:52 AM 64.9 °F 62.1 °F 90% 29.87 in 9.0 mi South 13.8 mph - N/A   Clear
7:52 AM 66.0 °F 63.0 °F 90% 29.90 in 8.0 mi South 13.8 mph - N/A   Clear
8:46 AM 69.8 °F 62.6 °F 78% 30.00 in 10.0 mi West 12.7 mph - N/A   Mostly Cloudy
8:52 AM 70.0 °F 63.0 °F 78% 30.00 in 10.0 mi WSW 9.2 mph - N/A   Mostly Cloudy
9:09 AM 71.6 °F 62.6 °F 73% 30.01 in 10.0 mi SW 8.1 mph - N/A   Scattered Clouds
9:52 AM 75.0 °F 61.0 °F 62% 30.03 in 10.0 mi NNW 11.5 mph - N/A   Mostly Cloudy
10:39 AM 77.0 °F 60.8 °F 57% 30.07 in 10.0 mi NNE 15.0 mph 24.2 mph N/A   Scattered Clouds
10:52 AM 75.0 °F 59.0 °F 57% 30.08 in 10.0 mi North 18.4 mph - N/A   Mostly Cloudy
11:04 AM 73.4 °F 60.8 °F 65% 30.09 in 10.0 mi NNE 18.4 mph - N/A   Mostly Cloudy
11:47 AM 64.4 °F 50.0 °F 59% 30.13 in 5.0 mi North 27.6 mph 42.6 mph N/A   Haze
11:52 AM 64.0 °F 48.9 °F 58% 30.14 in 7.0 mi North 31.1 mph 40.3 mph N/A   Overcast
12:52 PM 64.9 °F 45.0 °F 48% 30.17 in 10.0 mi North 25.3 mph 36.8 mph N/A   Overcast
1:52 PM 64.0 °F 42.1 °F 45% 30.17 in 10.0 mi North 26.5 mph 33.4 mph N/A   Overcast
2:35 PM 64.4 °F 42.8 °F 45% 30.18 in 10.0 mi North 24.2 mph 31.1 mph N/A   Overcast
2:52 PM 66.0 °F 43.0 °F 43% 30.18 in 10.0 mi North 23.0 mph 28.8 mph N/A   Overcast
3:52 PM 69.1 °F 39.9 °F 35% 30.18 in 10.0 mi North 18.4 mph 25.3 mph N/A   Overcast
4:52 PM 72.0 °F 39.0 °F 30% 30.17 in 10.0 mi NNE 16.1 mph - N/A   Clear
5:52 PM 70.0 °F 39.0 °F 32% 30.19 in 10.0 mi NNE 19.6 mph 24.2 mph N/A   Clear
6:52 PM 66.0 °F 32.0 °F 28% 30.22 in 10.0 mi North 12.7 mph - N/A   Clear
7:52 PM 61.0 °F 27.0 °F 27% 30.25 in 10.0 mi North 9.2 mph - N/A   Clear
8:52 PM 55.9 °F 27.0 °F 33% 30.26 in 10.0 mi NNW 5.8 mph - N/A   Clear
9:52 PM 54.0 °F 26.1 °F 34% 30.28 in 10.0 mi NNW 8.1 mph - N/A   Clear
10:52 PM 50.0 °F 26.1 °F 39% 30.30 in 10.0 mi NNW 6.9 mph - N/A   Clear
11:52 PM 48.0 °F 27.0 °F 44% 30.29 in 10.0 mi NNW 5.8 mph - N/A   Clear